CW2377 Weather Reports


Display with metric or nautical units.
time (UTC)temp
F
wind
direction
speed
MPH
gust
MPH
rain 1hr
in
rain 24hr
in
rain mn
in
humidity
%
barometer
mb
20260902161703 90 120 0.0 0.0 0.00 0.00 0.00 59 1013.8
20260902161204 89 120 0.0 0.0 0.00 0.00 0.00 58 1013.9
20260902160704 89 120 0.0 0.0 0.00 0.00 0.00 57 1013.9
20260902155704 89 120 0.0 0.0 0.00 0.00 0.00 59 1014.0
20260902155204 89 120 0.0 0.0 0.00 0.00 0.00 57 1014.0
20260902154703 88 120 0.0 0.0 0.00 0.00 0.00 60 1014.0
20260902154204 88 120 0.0 0.0 0.00 0.00 0.00 59 1014.2
20260902153703 87 120 0.0 0.0 0.00 0.00 0.00 59 1014.1
20260902151703 85 120 0.0 0.0 0.00 0.00 0.00 62 1014.0
20260902151204 84 120 0.0 0.0 0.00 0.00 0.00 64 1014.0
20260902150705 84 120 0.0 0.0 0.00 0.00 0.00 66 1014.0
20260902150203 83 120 0.0 0.0 0.00 0.00 0.00 66 1014.3
20260902145703 83 120 0.0 0.0 0.00 0.00 0.00 66 1014.3
20260902145204 83 120 0.0 0.0 0.00 0.00 0.00 66 1014.3
20260902144704 82 120 0.0 0.0 0.00 0.00 0.00 67 1014.3
20260902144203 82 120 0.0 0.0 0.00 0.00 0.00 68 1014.5
20260902143703 82 120 0.0 0.0 0.00 0.00 0.00 69 1014.5
20260902143203 81 120 0.0 0.0 0.00 0.00 0.00 69 1014.4
20260902142705 81 120 0.0 0.0 0.00 0.00 0.00 71 1014.4
20260902141704 80 120 0.0 0.0 0.00 0.00 0.00 73 1014.3
20260902141203 80 120 0.0 0.0 0.00 0.00 0.00 72 1014.4
20260902140703 80 120 0.0 0.0 0.00 0.00 0.00 72 1014.5
20260902140204 80 120 0.0 0.0 0.00 0.00 0.00 72 1014.7
20260902135704 81 120 0.0 0.0 0.00 0.00 0.00 71 1014.6
20260902135204 81 120 0.0 0.0 0.00 0.00 0.00 70 1014.6
20260902134703 81 120 0.0 0.0 0.00 0.00 0.00 70 1014.6
20260902134204 81 120 0.0 0.0 0.00 0.00 0.00 71 1014.7
20260902133704 80 120 0.0 0.0 0.00 0.00 0.00 72 1014.8
20260902133204 80 120 0.0 0.0 0.00 0.00 0.00 73 1014.4
20260902132704 80 120 0.0 0.0 0.00 0.00 0.00 74 1014.8
20260902132204 79 120 0.0 0.0 0.00 0.00 0.00 75 1014.6
20260902131204 79 120 0.0 0.0 0.00 0.00 0.00 74 1015.0
20260902130704 79 120 0.0 0.0 0.00 0.00 0.00 75 1014.6
20260902130204 79 120 0.0 0.0 0.00 0.00 0.00 75 1014.7
20260902125703 79 120 0.0 0.0 0.00 0.00 0.00 74 1015.0
20260902124704 79 120 0.0 0.0 0.00 0.00 0.00 75 1014.2
20260902124204 78 120 0.0 0.0 0.00 0.00 0.00 76 1014.1
20260902123703 78 120 0.0 0.0 0.00 0.00 0.00 76 1014.1
20260902123204 78 120 0.0 0.0 0.00 0.00 0.00 75 1014.3
20260902122703 78 120 0.0 0.0 0.00 0.00 0.00 75 1014.2
20260902121704 78 120 0.0 0.0 0.00 0.00 0.00 76 1014.2
20260902121203 77 120 0.0 0.0 0.00 0.00 0.00 77 1014.2
20260902120703 77 120 0.0 0.0 0.00 0.00 0.00 78 1014.1
20260902120204 77 120 0.0 0.0 0.00 0.00 0.00 78 1014.0
20260902115203 77 120 0.0 0.0 0.00 0.00 0.00 79 1013.9
20260902114705 77 120 0.0 0.0 0.00 0.00 0.00 78 1014.0
20260902114203 77 120 0.0 0.0 0.00 0.00 0.00 78 1013.9
20260902113704 77 120 0.0 0.0 0.00 0.00 0.00 79 1013.8
20260902113203 77 120 0.0 0.0 0.00 0.00 0.00 80 1013.8
20260902112703 77 120 0.0 0.0 0.00 0.00 0.00 80 1013.7
20260902112204 77 120 0.0 0.0 0.00 0.00 0.00 80 1013.8
20260902111704 77 120 0.0 0.0 0.00 0.00 0.00 79 1013.8
20260902111203 77 120 0.0 0.0 0.00 0.00 0.00 79 1013.9
20260902105704 77 120 0.0 0.0 0.00 0.00 0.00 79 1013.9
20260902104703 77 120 0.0 0.0 0.00 0.00 0.00 79 1014.0
20260902104203 77 120 0.0 0.0 0.00 0.00 0.00 79 1013.9
20260902103704 77 120 0.0 0.0 0.00 0.00 0.00 78 1014.0
20260902103203 77 120 0.0 0.0 0.00 0.00 0.00 78 1013.9
20260902102204 77 120 0.0 0.0 0.00 0.00 0.00 79 1014.0
20260902101704 77 120 0.0 0.0 0.00 0.00 0.00 79 1014.1
20260902101203 77 120 0.0 0.0 0.00 0.00 0.00 78 1014.0
20260902100704 77 120 0.0 0.0 0.00 0.00 0.00 78 1014.0
20260902095703 78 120 0.0 0.0 0.00 0.00 0.00 78 1014.0
20260902094704 78 120 0.0 0.0 0.00 0.00 0.00 78 1014.0
20260902094204 78 120 0.0 0.0 0.00 0.00 0.00 78 1014.0
20260902093704 78 120 0.0 0.0 0.00 0.00 0.00 78 1014.1
20260902092204 78 120 0.0 0.0 0.00 0.00 0.00 78 1014.1
20260902091704 78 120 0.0 0.0 0.00 0.00 0.00 78 1014.0
20260902091204 78 120 0.0 0.0 0.00 0.00 0.00 78 1014.0
20260902090704 78 120 0.0 0.0 0.00 0.00 0.00 78 1014.0
20260902085703 78 120 0.0 0.0 0.00 0.00 0.00 78 1013.9
20260902085204 78 120 0.0 0.0 0.00 0.00 0.00 78 1013.9
20260902084703 78 120 0.0 0.0 0.00 0.00 0.00 78 1013.9
20260902083703 78 120 0.0 0.0 0.00 0.00 0.00 78 1013.7
20260902083203 78 120 0.0 0.0 0.00 0.00 0.00 78 1013.7
20260902082704 78 120 0.0 0.0 0.00 0.00 0.00 78 1013.7
20260902082203 78 120 0.0 0.0 0.00 0.00 0.00 78 1013.7
20260902081703 79 120 0.0 0.0 0.00 0.00 0.00 78 1013.6
20260902081204 79 120 0.0 0.0 0.00 0.00 0.00 77 1013.7
20260902080703 79 120 0.0 0.0 0.00 0.00 0.00 77 1013.7
20260902080203 79 120 0.0 0.0 0.00 0.00 0.00 77 1013.7
20260902075703 79 120 0.0 0.0 0.00 0.00 0.00 77 1013.7
20260902075203 79 120 0.0 0.0 0.00 0.00 0.00 77 1013.7
20260902074704 79 120 0.0 0.0 0.00 0.00 0.00 77 1013.7
20260902074204 79 120 0.0 0.0 0.00 0.00 0.00 76 1013.7
20260902073704 79 120 0.0 0.0 0.00 0.00 0.00 76 1013.7
20260902073203 79 120 0.0 0.0 0.00 0.00 0.00 77 1013.8
20260902072703 79 120 0.0 0.0 0.00 0.00 0.00 77 1013.7
20260902072203 79 120 0.0 0.0 0.00 0.00 0.00 77 1013.7
20260902071704 79 120 0.0 0.0 0.00 0.00 0.00 77 1013.7
20260902071204 79 120 0.0 0.0 0.00 0.00 0.00 77 1013.7
20260902070704 79 120 0.0 0.0 0.00 0.00 0.00 77 1013.6
20260902070203 79 120 0.0 0.0 0.00 0.00 0.00 77 1013.7
20260902065703 79 120 0.0 0.0 0.00 0.00 0.00 76 1013.5
20260902064703 80 120 0.0 0.0 0.00 0.00 0.00 76 1013.7
20260902064203 80 120 0.0 0.0 0.00 0.00 0.00 76 1013.7
20260902063204 80 120 0.0 0.0 0.00 0.00 0.00 75 1013.8
20260902062703 80 120 0.0 0.0 0.00 0.00 0.00 75 1013.8
20260902062204 80 120 0.0 0.0 0.00 0.00 0.00 75 1013.8
20260902061703 80 120 0.0 0.0 0.00 0.00 0.00 76 1013.9
20260902060704 80 120 0.0 0.0 0.00 0.00 0.00 75 1013.8
20260902060204 80 120 0.0 0.0 0.00 0.00 0.00 75 1013.7
20260902055703 80 120 0.0 0.0 0.00 0.00 0.00 75 1013.7
20260902055204 80 120 0.0 0.0 0.00 0.00 0.00 75 1013.7
20260902054704 81 120 0.0 0.0 0.00 0.00 0.00 75 1013.7
20260902054203 81 120 0.0 0.0 0.00 0.00 0.00 75 1013.6
20260902053703 81 120 0.0 0.0 0.00 0.00 0.00 75 1013.6
20260902053204 81 120 0.0 0.0 0.00 0.00 0.00 75 1013.6
20260902052703 81 120 0.0 0.0 0.00 0.00 0.00 75 1013.7
20260902052204 81 120 0.0 0.0 0.00 0.00 0.00 75 1013.7
20260902051203 81 120 0.0 0.0 0.00 0.00 0.00 76 1013.7
20260902050204 81 120 0.0 0.0 0.00 0.00 0.00 75 1013.6
20260902045703 81 120 0.0 0.0 0.00 0.00 0.00 76 1013.7
20260902045203 81 120 0.0 0.0 0.00 0.00 0.00 76 1013.7
20260902044704 81 120 0.0 0.0 0.00 0.00 0.00 76 1013.7
20260902043704 81 120 0.0 0.0 0.00 0.00 0.00 75 1013.6
20260902043204 81 120 0.0 0.0 0.00 0.00 0.00 75 1013.5
20260902042704 82 120 0.0 0.0 0.00 0.00 0.00 74 1013.5
20260902042203 82 120 0.0 0.0 0.00 0.00 0.00 74 1013.6
20260902041703 82 120 0.0 0.0 0.00 0.00 0.00 74 1013.6
20260902041203 82 120 0.0 0.0 0.00 0.00 0.00 73 1013.6
20260902040704 82 120 0.0 0.0 0.00 0.00 0.00 73 1013.7
20260902040203 82 120 0.0 0.0 0.00 0.00 0.00 73 1013.7
20260902035204 82 120 0.0 0.0 0.00 0.00 0.00 74 1013.6
20260902034704 82 120 0.0 0.0 0.00 0.00 0.00 73 1013.7
20260902034204 82 120 0.0 0.0 0.00 0.00 0.00 73 1013.7
20260902033703 82 120 0.0 0.0 0.00 0.00 0.00 74 1013.8
20260902033204 82 120 0.0 0.0 0.00 0.00 0.00 73 1013.8
20260902032703 82 120 0.0 0.0 0.00 0.00 0.00 74 1013.8
20260902032204 82 120 0.0 0.0 0.00 0.00 0.00 74 1013.8
20260902031703 82 120 0.0 0.0 0.00 0.00 0.00 74 1013.9
20260902031204 82 120 0.0 0.0 0.00 0.00 0.00 76 1013.9
20260902030703 82 120 0.0 0.0 0.00 0.00 0.00 76 1014.0
20260902030204 82 120 0.0 0.0 0.00 0.00 0.00 76 1014.0
20260902025204 82 120 0.0 0.0 0.00 0.00 0.00 78 1014.0
20260902024204 82 120 0.0 0.0 0.00 0.00 0.00 79 1014.0
20260902023704 82 120 0.0 0.0 0.00 0.00 0.00 79 1013.9
20260902022704 82 120 0.0 0.0 0.00 0.00 0.00 78 1013.8
20260902022203 82 120 0.0 0.0 0.00 0.00 0.00 78 1013.8
20260902021204 82 120 0.0 0.0 0.00 0.00 0.00 78 1013.9
20260902020704 82 120 0.0 0.0 0.00 0.00 0.00 77 1013.9
20260902020204 83 120 0.0 0.0 0.00 0.00 0.00 77 1013.9
20260902015704 83 120 0.0 0.0 0.00 0.00 0.00 76 1013.8
20260902015204 83 120 0.0 0.0 0.00 0.00 0.00 76 1013.8
20260902014704 83 120 0.0 0.0 0.00 0.00 0.00 76 1013.8
20260902014203 83 120 0.0 0.0 0.00 0.00 0.00 76 1013.7
20260902013704 83 120 0.0 0.0 0.00 0.00 0.00 75 1013.6
20260902013203 83 120 0.0 0.0 0.00 0.00 0.00 74 1013.6
20260902012704 83 120 0.0 0.0 0.00 0.00 0.00 74 1013.5
20260902012204 83 120 0.0 0.0 0.00 0.00 0.00 75 1013.4
20260902011703 83 120 0.0 0.0 0.00 0.00 0.00 76 1013.3
20260902010703 83 120 0.0 0.0 0.00 0.00 0.00 77 1013.2
20260902010204 83 120 0.0 0.0 0.00 0.00 0.00 77 1013.2
20260902005703 83 120 0.0 0.0 0.00 0.00 0.00 77 1013.1
20260902005204 84 120 0.0 0.0 0.00 0.00 0.00 76 1013.1
20260902004704 84 120 0.0 0.0 0.00 0.00 0.00 75 1013.0
20260902004203 84 120 0.0 0.0 0.00 0.00 0.00 74 1012.9
20260902003704 85 120 0.0 0.0 0.00 0.00 0.00 74 1012.9
20260902003203 85 120 0.0 0.0 0.00 0.00 0.00 74 1012.9
20260902002704 85 120 0.0 0.0 0.00 0.00 0.00 73 1012.9
20260902002203 86 120 0.0 0.0 0.00 0.00 0.00 72 1012.9
20260902001204 87 120 0.0 0.0 0.00 0.00 0.00 70 1012.8
20260902000704 87 120 0.0 0.0 0.00 0.00 0.00 69 1012.9
20260901235704 87 120 0.0 0.0 0.00 0.00 0.00 68 1012.9
20260901235203 88 120 0.0 0.0 0.00 0.00 0.00 67 1012.9
20260901234203 88 120 0.0 0.0 0.00 0.00 0.00 66 1012.9
20260901233704 88 120 0.0 0.0 0.00 0.00 0.00 66 1012.8
20260901233204 89 120 0.0 0.0 0.00 0.00 0.00 65 1012.9
20260901232703 89 120 0.0 0.0 0.00 0.00 0.00 65 1012.9
20260901232203 89 120 0.0 0.0 0.00 0.00 0.00 64 1013.0
20260901231703 89 120 0.0 0.0 0.00 0.00 0.00 65 1013.0
20260901231204 89 120 0.0 0.0 0.00 0.00 0.00 64 1013.0
20260901230703 89 120 0.0 0.0 0.00 0.00 0.00 64 1012.9
20260901230203 90 120 0.0 0.0 0.00 0.00 0.00 64 1012.9
20260901225703 90 120 0.0 0.0 0.00 0.00 0.00 63 1013.0
20260901225203 90 120 0.0 0.0 0.00 0.00 0.00 63 1013.0
20260901224704 90 120 0.0 0.0 0.00 0.00 0.00 61 1013.1
20260901224203 90 120 0.0 0.0 0.00 0.00 0.00 62 1013.1
20260901223703 90 120 0.0 0.0 0.00 0.00 0.00 62 1013.2
20260901223204 90 120 0.0 0.0 0.00 0.00 0.00 61 1013.2
20260901222703 90 120 0.0 0.0 0.00 0.00 0.00 61 1013.2
20260901222204 90 120 0.0 0.0 0.00 0.00 0.00 61 1013.3
20260901221704 90 120 0.0 0.0 0.00 0.00 0.00 61 1013.3
20260901221204 90 120 0.0 0.0 0.00 0.00 0.00 62 1013.3
20260901220703 91 120 0.0 0.0 0.00 0.00 0.00 62 1013.2
20260901220204 91 120 0.0 0.0 0.00 0.00 0.00 61 1013.1
20260901215203 91 120 0.0 0.0 0.00 0.00 0.00 61 1013.1
20260901214204 91 120 0.0 0.0 0.00 0.00 0.00 62 1013.1
20260901213704 92 120 0.0 0.0 0.00 0.00 0.00 61 1013.1
20260901213203 92 120 0.0 0.0 0.00 0.00 0.00 61 1013.1
20260901212704 92 120 0.0 0.0 0.00 0.00 0.00 59 1013.1
20260901212204 93 120 0.0 0.0 0.00 0.00 0.00 57 1013.2
20260901211704 93 120 0.0 0.0 0.00 0.00 0.00 57 1013.2
20260901211205 94 120 0.0 0.0 0.00 0.01 0.00 56 1013.2
20260901210703 94 120 0.0 0.0 0.00 0.01 0.00 57 1013.2
20260901210204 94 120 0.0 0.0 0.00 0.01 0.00 56 1013.3
20260901205704 94 120 0.0 0.0 0.00 0.01 0.00 56 1013.3
20260901205204 95 120 0.0 0.0 0.00 0.01 0.00 54 1013.4
20260901204704 95 120 0.0 0.0 0.00 0.01 0.00 55 1013.4
20260901204203 95 120 0.0 0.0 0.00 0.01 0.00 54 1013.4
20260901203703 95 120 0.0 0.0 0.00 0.04 0.00 56 1013.4
20260901203204 95 120 0.0 0.0 0.00 0.04 0.00 53 1013.4
20260901201704 95 120 0.0 0.0 0.00 0.12 0.00 52 1013.5
20260901201203 95 120 0.0 0.0 0.00 0.14 0.00 51 1013.5
20260901200703 95 120 0.0 0.0 0.00 0.14 0.00 50 1013.5
20260901200203 95 120 0.0 0.0 0.00 0.14 0.00 50 1013.6
20260901195704 95 120 0.0 0.0 0.00 0.14 0.00 49 1013.6
20260901195204 95 120 0.0 0.0 0.00 0.15 0.00 50 1013.7
20260901194704 95 120 0.0 0.0 0.00 0.15 0.00 51 1013.7
20260901194203 95 120 0.0 0.0 0.00 0.15 0.00 53 1013.7
20260901193203 94 120 0.0 0.0 0.00 0.16 0.00 53 1013.8
20260901192704 94 120 0.0 0.0 0.00 0.20 0.00 55 1013.7
20260901191704 94 120 0.0 0.0 0.00 0.20 0.00 57 1013.7
20260901190703 94 120 0.0 0.0 0.00 0.20 0.00 58 1013.8
20260901190203 94 120 0.0 0.0 0.00 0.20 0.00 57 1013.8
20260901185704 93 120 0.0 0.0 0.00 0.20 0.00 55 1013.8
20260901184703 94 120 0.0 0.0 0.00 0.20 0.00 57 1013.9
20260901184204 94 120 0.0 0.0 0.00 0.20 0.00 57 1013.9
20260901183703 94 120 0.0 0.0 0.00 0.20 0.00 55 1014.0
20260901183203 93 120 0.0 0.0 0.00 0.20 0.00 57 1014.0
20260901182703 93 120 0.0 0.0 0.00 0.20 0.00 57 1014.0
20260901182203 93 120 0.0 0.0 0.00 0.20 0.00 58 1014.0
20260901181703 93 120 0.0 0.0 0.00 0.20 0.00 59 1014.0
20260901181204 92 120 0.0 0.0 0.00 0.20 0.00 57 1014.0
20260901180703 92 120 0.0 0.0 0.00 0.20 0.00 58 1014.0
20260901180203 92 120 0.0 0.0 0.00 0.20 0.00 60 1014.2
20260901175704 92 120 0.0 0.0 0.00 0.20 0.00 63 1014.2
20260901175203 92 120 0.0 0.0 0.00 0.20 0.00 64 1014.3
20260901174703 91 120 0.0 0.0 0.00 0.20 0.00 65 1014.4
20260901174204 90 120 0.0 0.0 0.00 0.20 0.00 66 1014.3
20260901173704 90 120 0.0 0.0 0.00 0.20 0.00 66 1014.4
20260901173204 90 120 0.0 0.0 0.00 0.20 0.00 66 1014.4
20260901172703 90 120 0.0 0.0 0.00 0.20 0.00 67 1014.4
20260901172204 89 120 0.0 0.0 0.00 0.20 0.00 69 1014.5
20260901171703 89 120 0.0 0.0 0.00 0.20 0.00 70 1014.5
20260901171203 88 120 0.0 0.0 0.00 0.20 0.00 69 1014.5
20260901170703 87 120 0.0 0.0 0.00 0.20 0.00 71 1014.6
20260901170204 87 120 0.0 0.0 0.00 0.20 0.00 74 1014.5
20260901165704 86 120 0.0 0.0 0.00 0.20 0.00 76 1014.7
20260901165204 85 120 0.0 0.0 0.00 0.20 0.00 75 1014.7
20260901164703 85 120 0.0 0.0 0.00 0.20 0.00 76 1014.8
20260901164203 85 120 0.0 0.0 0.00 0.20 0.00 77 1014.9
20260901163703 85 120 0.0 0.0 0.00 0.20 0.00 77 1015.0
20260901163203 85 120 0.0 0.0 0.00 0.20 0.00 76 1015.0
20260901162703 85 120 0.0 0.0 0.00 0.20 0.00 76 1015.0
20260901162203 85 120 0.0 0.0 0.00 0.20 0.00 76 1015.0